Home > Weather > Ensenada > Past weeks

Flag for Mexico Past Weather in Ensenada, Baja California, Mexico — Yesterday and Last 2 Weeks

Now
69 °F

Mild.


Feels Like: 69 °F
Forecast: 64 / 88 °F
Wind: 5 mph from Northeast

Location: Campo

Current Time: Jun 28, 2016 at 1:05:53 AM

Latest Report: Jun 27, 2016 at 11:52 PM


Visibility: N/A

Pressure: 29.89 "Hg

Humidity: 41%

Dew Point: 44 °F

Location of EnsenadaLocation

Past Weather in Ensenada — Graph

°F

Ensenada Temperature Yesterday

Maximum temperature yesterday: 99 °F (at 11:52 AM)
Minimum temperature yesterday: 67 °F (at 5:52 AM)
Average temperature yesterday: 84 °F

High & Low Weather Summary for the Past Weeks

 TemperatureHumidityPressure
High108 °F (Jun 20, 11:52 AM)97% (Jun 13, 5:52 AM)30.03 "Hg (Jun 13, 5:52 AM)
Low41 °F (Jun 16, 3:52 AM)8% (Jun 18, 12:52 PM)29.75 "Hg (Jun 25, 3:52 PM)
Average73 °F42%29.88 "Hg
* Reported Jun 12 11:52 PM — Jun 27 11:52 PM, Ensenada, Weather by CustomWeather, © 2016

Note: Actual official high and low records may vary slightly from our data, if they occured in-between our weather recording intervals... More about our weather records

Advertising

Ensenada Weather History for the Previous 24 Hours

Scroll right to see more
 ConditionsComfort  
Time TempWeatherWind HumidityBarometerVisibility
11:52 PM
Mon, Jun 27
69 °FMild.5 mph41%29.89 "HgN/A
10:52 PM71 °FMild.5 mph39%29.89 "HgN/A
9:52 PM70 °FMild.6 mph41%29.89 "HgN/A
8:52 PM80 °FPleasantly warm.No wind31%29.86 "HgN/A
7:52 PM83 °FPleasantly warm.10 mph27%29.85 "HgN/A
6:52 PM88 °FHot.16 mph23%29.85 "HgN/A
5:52 PM94 °FExtremely hot.12 mph17%29.83 "HgN/A
4:52 PM98 °FExtremely hot.15 mph14%29.83 "HgN/A
3:52 PM98 °FExtremely hot.12 mph16%29.83 "HgN/A
2:52 PM99 °FExtremely hot.18 mph17%29.84 "HgN/A
1:52 PM99 °FExtremely hot.20 mph17%29.83 "HgN/A
12:52 PM97 °FExtremely hot.18 mph15%29.85 "HgN/A
11:52 AM99 °FExtremely hot.16 mph16%29.85 "HgN/A
10:52 AM98 °FExtremely hot.17 mph13%29.86 "HgN/A
9:52 AM96 °FExtremely hot.9 mph12%29.86 "HgN/A
8:52 AM95 °FExtremely hot.7 mph14%29.87 "HgN/A
7:52 AM84 °FPleasantly warm.No wind37%29.88 "HgN/A
6:52 AM70 °FMild.3 mph53%29.88 "HgN/A
5:52 AM67 °FMild.3 mph57%29.87 "HgN/A
4:52 AM68 °FMild.No wind59%29.85 "HgN/A
3:52 AM72 °FMild.5 mph49%29.83 "HgN/A
2:52 AM70 °FMild.No wind55%29.84 "HgN/A
1:52 AM74 °FMild.No wind48%29.83 "HgN/A
Weather by CustomWeather, © 2016

See weather overviewHow to use our weather pages